Year,Month,Day,Hour,Minute,Value (Times are PST for barometer in hPa)
2021,04,20,00,00,1004.37
2021,04,20,00,01,1004.37
2021,04,20,00,02,1004.37
2021,04,20,00,03,1004.37
2021,04,20,00,04,1004.37
2021,04,20,00,05,1004.37
2021,04,20,00,06,1004.37
2021,04,20,00,07,1004.37
2021,04,20,00,08,1004.37
2021,04,20,00,09,1002.03
2021,04,20,00,10,995.02
2021,04,20,00,11,995.02
2021,04,20,00,12,995.02
2021,04,20,00,13,995.02
2021,04,20,00,14,995.02
2021,04,20,00,15,995.02
2021,04,20,00,16,995.02
2021,04,20,00,17,995.02
2021,04,20,00,18,995.02
2021,04,20,00,19,995.02
2021,04,20,00,20,995.02
2021,04,20,00,21,994.89
2021,04,20,00,22,994.48
2021,04,20,00,23,994.48
2021,04,20,00,24,994.48
2021,04,20,00,25,994.48
2021,04,20,00,26,994.48
2021,04,20,00,27,994.48
2021,04,20,00,28,994.48
2021,04,20,00,29,994.48
2021,04,20,00,30,994.48
2021,04,20,00,31,994.48
2021,04,20,00,32,994.48
2021,04,20,00,33,994.48
2021,04,20,00,34,994.48
2021,04,20,00,35,994.48
2021,04,20,00,36,995.36
2021,04,20,00,37,997.86
2021,04,20,00,38,997.97
2021,04,20,00,39,997.97
2021,04,20,00,40,997.97
2021,04,20,00,41,997.97
2021,04,20,00,42,997.97
2021,04,20,00,43,997.97
2021,04,20,00,44,997.97
2021,04,20,00,45,997.97
2021,04,20,00,46,997.97
2021,04,20,00,47,997.97
2021,04,20,00,48,997.97
2021,04,20,00,49,997.97
2021,04,20,00,50,997.97
2021,04,20,00,51,998.65
2021,04,20,00,52,1000.68
2021,04,20,00,53,1000.68
2021,04,20,00,54,1000.68
2021,04,20,00,55,1000.68
2021,04,20,00,56,1000.68
2021,04,20,00,57,1000.68
2021,04,20,00,58,1000.68
2021,04,20,00,59,1000.68
2021,04,20,01,00,1000.68
2021,04,20,01,01,1000.68
2021,04,20,01,02,1000.68
2021,04,20,01,03,1000.68
2021,04,20,01,04,1000.68
2021,04,20,01,05,1000.68
2021,04,20,01,06,1000.68
2021,04,20,01,07,1001.34
2021,04,20,01,08,1003.32
2021,04,20,01,09,1003.32
2021,04,20,01,10,1003.32
2021,04,20,01,11,1003.32
2021,04,20,01,12,1003.32
2021,04,20,01,13,1003.60
2021,04,20,01,14,1004.50
2021,04,20,01,15,1004.07
2021,04,20,01,16,1002.78
2021,04,20,01,17,1002.78
2021,04,20,01,18,1002.78
2021,04,20,01,19,1002.78
2021,04,20,01,20,1002.78
2021,04,20,01,21,1002.85
2021,04,20,01,22,1003.08
2021,04,20,01,23,1003.08
2021,04,20,01,24,1006.51
2021,04,20,01,25,1016.80
2021,04,20,01,26,1016.80
2021,04,20,01,27,1016.80
2021,04,20,01,28,1016.80
2021,04,20,01,29,1016.80
2021,04,20,01,30,1017.76
2021,04,20,01,31,1021.37
2021,04,20,01,32,1021.37
2021,04,20,01,33,1021.37
2021,04,20,01,34,1021.37
2021,04,20,01,35,1021.37
2021,04,20,01,36,1021.37
2021,04,20,01,37,1021.37
2021,04,20,01,38,1021.37
2021,04,20,01,39,1021.37
2021,04,20,01,40,1021.37
2021,04,20,01,41,1021.37
2021,04,20,01,42,1021.37
2021,04,20,01,43,1021.37
2021,04,20,01,44,1021.37
2021,04,20,01,45,1021.37
2021,04,20,01,46,1017.05
2021,04,20,01,47,1004.10
2021,04,20,01,48,1004.10
2021,04,20,01,49,1004.10
2021,04,20,01,50,1003.93
2021,04,20,01,51,1003.42
2021,04,20,01,52,1003.42
2021,04,20,01,53,1003.42
2021,04,20,01,54,1003.42
2021,04,20,01,55,1003.42
2021,04,20,01,56,1003.84
2021,04,20,01,57,1005.11
2021,04,20,01,58,1005.11
2021,04,20,01,59,1005.11
2021,04,20,02,00,1005.11
2021,04,20,02,01,1005.11
2021,04,20,02,02,1005.11
2021,04,20,02,03,1005.11
2021,04,20,02,04,1005.11
2021,04,20,02,05,1005.11
2021,04,20,02,06,1005.55
2021,04,20,02,07,1007.21
2021,04,20,02,08,1007.09
2021,04,20,02,09,1006.74
2021,04,20,02,10,1006.74
2021,04,20,02,11,1006.74
2021,04,20,02,12,1006.74
2021,04,20,02,13,1006.07
2021,04,20,02,14,1003.42
2021,04,20,02,15,1003.01
2021,04,20,02,16,1002.76
2021,04,20,02,17,1002.14
2021,04,20,02,18,1002.60
2021,04,20,02,19,1002.68
2021,04,20,02,20,1002.40
2021,04,20,02,21,1001.62
2021,04,20,02,22,1001.83
2021,04,20,02,23,1001.83
2021,04,20,02,24,1002.54
2021,04,20,02,25,1005.18
2021,04,20,02,26,1004.92
2021,04,20,02,27,1004.13
2021,04,20,02,28,1004.13
2021,04,20,02,29,1004.13
2021,04,20,02,30,1004.13
2021,04,20,02,31,1004.13
2021,04,20,02,32,1004.14
2021,04,20,02,33,1004.04
2021,04,20,02,34,1003.56
2021,04,20,02,35,1003.56
2021,04,20,02,36,1002.95
2021,04,20,02,37,1001.12
2021,04,20,02,38,1001.44
2021,04,20,02,39,1002.52
2021,04,20,02,40,1002.95
2021,04,20,02,41,1002.95
2021,04,20,02,42,1002.95
2021,04,20,02,43,1002.95
2021,04,20,02,44,1003.79
2021,04,20,02,45,1006.33
2021,04,20,02,46,1006.33
2021,04,20,02,47,1006.33
2021,04,20,02,48,1006.33
2021,04,20,02,49,1006.33
2021,04,20,02,50,1006.33
2021,04,20,02,51,1006.33
2021,04,20,02,52,1006.33
2021,04,20,02,53,1006.33
2021,04,20,02,54,1006.33
2021,04,20,02,55,1006.33
2021,04,20,02,56,1006.33
2021,04,20,02,57,1006.33
2021,04,20,02,58,1006.33
2021,04,20,02,59,1006.33
2021,04,20,03,00,1006.33
2021,04,20,03,01,1006.33
2021,04,20,03,02,1006.33
2021,04,20,03,06,1012.56
2021,04,20,03,07,1011.02
2021,04,20,03,08,1008.70
2021,04,20,03,09,1008.70
2021,04,20,03,10,1008.70
2021,04,20,03,11,1008.70
2021,04,20,03,12,1008.70
2021,04,20,03,13,1008.70
2021,04,20,03,14,1008.82
2021,04,20,03,15,1009.09
2021,04,20,03,16,1009.21
2021,04,20,03,17,1009.21
2021,04,20,03,18,1009.21
2021,04,20,03,19,1009.21
2021,04,20,03,20,1009.21
2021,04,20,03,21,1009.21
2021,04,20,03,22,1009.21
2021,04,20,03,23,1009.21
2021,04,20,03,24,1009.21
2021,04,20,03,25,1009.21
2021,04,20,03,26,1009.21
2021,04,20,03,27,1009.21
2021,04,20,03,28,1003.33
2021,04,20,03,29,994.52
2021,04,20,03,30,994.52
2021,04,20,03,31,994.52
2021,04,20,03,32,994.52
2021,04,20,03,33,996.44
2021,04,20,03,34,999.73
2021,04,20,03,35,999.73
2021,04,20,03,36,999.73
2021,04,20,03,37,1000.75
2021,04,20,03,38,1002.27
2021,04,20,03,39,1003.34
2021,04,20,03,40,1005.18
2021,04,20,03,41,1005.18
2021,04,20,03,42,1005.18
2021,04,20,03,43,1005.69
2021,04,20,03,44,1006.57
2021,04,20,03,45,1007.33
2021,04,20,03,46,1008.47
2021,04,20,03,47,1008.47
2021,04,20,03,48,1008.47
2021,04,20,03,49,1008.47
2021,04,20,03,50,1008.47
2021,04,20,03,51,1008.47
2021,04,20,03,52,1008.47
2021,04,20,03,53,1008.47
2021,04,20,03,54,1008.47
2021,04,20,03,55,1008.47
2021,04,20,03,56,1008.47
2021,04,20,03,57,1012.09
2021,04,20,03,58,1017.51
2021,04,20,03,59,1017.51
2021,04,20,04,00,1017.51
2021,04,20,04,01,1017.51
2021,04,20,04,02,1017.51
2021,04,20,04,03,1015.72
2021,04,20,04,04,1012.40
2021,04,20,04,05,1012.40
2021,04,20,04,06,1012.40
2021,04,20,04,07,1012.40
2021,04,20,04,08,1012.40
2021,04,20,04,09,1012.40
2021,04,20,04,10,1012.40
2021,04,20,04,11,1012.40
2021,04,20,04,12,1012.40
2021,04,20,04,13,1012.40
2021,04,20,04,14,1012.40
2021,04,20,04,15,1012.40
2021,04,20,04,16,1012.40
2021,04,20,04,17,1012.40
2021,04,20,04,18,1012.40
2021,04,20,04,19,1012.40
2021,04,20,04,20,1012.40
2021,04,20,04,21,1012.40
2021,04,20,04,22,1012.40
2021,04,20,04,23,1012.40
2021,04,20,04,24,1012.40
2021,04,20,04,25,1012.40
2021,04,20,04,26,1012.40
2021,04,20,04,27,1012.40
2021,04,20,04,28,1012.40
2021,04,20,04,29,1012.40
2021,04,20,04,30,1012.40
2021,04,20,04,31,1012.40
2021,04,20,04,32,1012.40
2021,04,20,04,33,1012.40
2021,04,20,04,34,1014.93
2021,04,20,04,35,1019.88
2021,04,20,04,36,1020.39
2021,04,20,04,37,1020.37
2021,04,20,04,38,1019.98
2021,04,20,04,39,1019.98
2021,04,20,04,40,1019.98
2021,04,20,04,41,1019.98
2021,04,20,04,42,1019.98
2021,04,20,04,43,1020.57
2021,04,20,04,44,1021.67
2021,04,20,04,45,1021.06
2021,04,20,04,46,1020.26
2021,04,20,04,47,1020.50
2021,04,20,04,48,1020.81
2021,04,20,04,49,1021.15
2021,04,20,04,50,1021.27
2021,04,20,04,51,1021.65
2021,04,20,04,52,1021.62
2021,04,20,04,53,1021.72
2021,04,20,04,54,1021.94
2021,04,20,04,55,1022.10
2021,04,20,04,56,1022.08
2021,04,20,04,57,1022.08
2021,04,20,04,58,1022.08
2021,04,20,04,59,1021.66
2021,04,20,05,00,1020.78
2021,04,20,05,01,1020.64
2021,04,20,05,02,1020.81
2021,04,20,05,03,1020.73
2021,04,20,05,04,1020.73
2021,04,20,05,05,1020.66
2021,04,20,05,06,1020.52
2021,04,20,05,07,1020.38
2021,04,20,05,08,1020.34
2021,04,20,05,09,1020.69
2021,04,20,05,10,1020.69
2021,04,20,05,11,1020.69
2021,04,20,05,12,1020.69
2021,04,20,05,13,1018.65
2021,04,20,05,14,1015.14
2021,04,20,05,15,1015.14
2021,04,20,05,16,1015.14
2021,04,20,05,17,1015.83
2021,04,20,05,18,1016.87
2021,04,20,05,19,1017.65
2021,04,20,05,20,1019.30
2021,04,20,05,21,1019.64
2021,04,20,05,22,1018.92
2021,04,20,05,23,1017.58
2021,04,20,05,24,1017.58
2021,04,20,05,25,1017.95
2021,04,20,05,26,1018.56
2021,04,20,05,27,1018.17
2021,04,20,05,28,1017.75
2021,04,20,05,29,1017.75
2021,04,20,05,30,1017.75
2021,04,20,05,31,1018.51
2021,04,20,05,32,1019.91
2021,04,20,05,33,1019.91
2021,04,20,05,34,1019.91
2021,04,20,05,35,1019.91
2021,04,20,05,36,1019.06
2021,04,20,05,37,1017.61
2021,04,20,05,38,1016.64
2021,04,20,05,39,1014.77
2021,04,20,05,40,1014.71
2021,04,20,05,41,1014.80
2021,04,20,05,42,1014.80
2021,04,20,05,43,1014.80
2021,04,20,05,44,1014.80
2021,04,20,05,45,1014.80
2021,04,20,05,46,1014.80
2021,04,20,05,47,1015.61
2021,04,20,05,48,1016.74
2021,04,20,05,49,1016.52
2021,04,20,05,50,1016.45
2021,04,20,05,51,1016.42
2021,04,20,05,52,1016.42
2021,04,20,05,53,1016.42
2021,04,20,05,54,1016.42
2021,04,20,05,55,1016.42
2021,04,20,05,56,1016.42
2021,04,20,05,57,1016.42
2021,04,20,05,58,1016.42
2021,04,20,05,59,1016.42
2021,04,20,06,00,1016.81
2021,04,20,06,01,1017.71
2021,04,20,06,02,1017.71
2021,04,20,06,03,1018.06
2021,04,20,06,04,1018.66
2021,04,20,06,05,1017.14
2021,04,20,06,06,1014.33
2021,04,20,06,07,1014.33
2021,04,20,06,08,1014.33
2021,04,20,06,09,1014.33
2021,04,20,06,10,1014.33
2021,04,20,06,11,1014.33
2021,04,20,06,12,1014.33
2021,04,20,06,13,1014.33
2021,04,20,06,14,1014.33
2021,04,20,06,15,1014.33
2021,04,20,06,16,1014.33
2021,04,20,06,17,1014.33
2021,04,20,06,18,1014.33
2021,04,20,06,19,1015.88
2021,04,20,06,20,1019.24
2021,04,20,06,21,1019.24
2021,04,20,06,22,1019.30
2021,04,20,06,23,1019.40
2021,04,20,06,24,1020.05
2021,04,20,06,25,1021.51
2021,04,20,06,26,1021.78
2021,04,20,06,27,1021.80
2021,04,20,06,28,1022.18
2021,04,20,06,29,1022.19
2021,04,20,06,30,1022.22
2021,04,20,06,31,1022.22
2021,04,20,06,32,1022.23
2021,04,20,06,33,1022.25
2021,04,20,06,34,1022.26
2021,04,20,06,35,1022.28
2021,04,20,06,36,1022.29
2021,04,20,06,37,1022.33
2021,04,20,06,38,1022.34
2021,04,20,06,39,1022.33
2021,04,20,06,40,1022.36
2021,04,20,06,41,1022.39
2021,04,20,06,42,1022.38
2021,04,20,06,43,1022.35
2021,04,20,06,44,1022.35
2021,04,20,06,45,1022.35
2021,04,20,06,46,1022.34
2021,04,20,06,47,1022.33
2021,04,20,06,48,1022.35
2021,04,20,06,49,1022.35
2021,04,20,06,50,1022.36
2021,04,20,06,51,1022.39
2021,04,20,06,52,1022.38
2021,04,20,06,53,1022.35
2021,04,20,06,54,1022.36
2021,04,20,06,55,1022.40
2021,04,20,06,56,1022.42
2021,04,20,06,57,1022.43
2021,04,20,06,58,1022.45
2021,04,20,06,59,1022.45
2021,04,20,07,00,1022.45
2021,04,20,07,01,1022.45
2021,04,20,07,02,1022.45
2021,04,20,07,03,1022.31
2021,04,20,07,04,1021.97
2021,04,20,07,05,1021.87
2021,04,20,07,06,1022.12
2021,04,20,07,07,1022.28
2021,04,20,07,08,1021.76
2021,04,20,07,09,1020.84
2021,04,20,07,10,1020.93
2021,04,20,07,11,1021.39
2021,04,20,07,12,1022.26
2021,04,20,07,13,1022.35
2021,04,20,07,14,1022.49
2021,04,20,07,15,1022.36
2021,04,20,07,16,1022.26
2021,04,20,07,17,1022.49
2021,04,20,07,18,1021.48
2021,04,20,07,19,1019.30
2021,04,20,07,20,1019.73
2021,04,20,07,21,1020.52
2021,04,20,07,22,1020.70
2021,04,20,07,23,1021.10
2021,04,20,07,24,1021.50
2021,04,20,07,25,1022.39
2021,04,20,07,26,1022.66
2021,04,20,07,27,1022.67
2021,04,20,07,28,1022.69
2021,04,20,07,29,1022.69
2021,04,20,07,30,1022.70
2021,04,20,07,31,1022.68
2021,04,20,07,32,1022.63
2021,04,20,07,33,1022.66
2021,04,20,07,34,1022.66
2021,04,20,07,35,1022.19
2021,04,20,07,36,1021.17
2021,04,20,07,37,1021.52
2021,04,20,07,38,1022.35
2021,04,20,07,39,1022.67
2021,04,20,07,40,1022.66
2021,04,20,07,41,1022.60
2021,04,20,07,42,1022.55
2021,04,20,07,43,1022.54
2021,04,20,07,44,1022.54
2021,04,20,07,45,1022.55
2021,04,20,07,46,1022.34
2021,04,20,07,47,1022.05
2021,04,20,07,48,1022.05
2021,04,20,07,49,1022.05
2021,04,20,07,50,1022.05
2021,04,20,07,51,1022.05
2021,04,20,07,52,1022.05
2021,04,20,07,53,1022.05
2021,04,20,07,54,1022.05
2021,04,20,07,55,1020.71
2021,04,20,07,56,1018.00
2021,04,20,07,57,1017.58
2021,04,20,07,58,1015.88
2021,04,20,07,59,1011.92
2021,04,20,08,00,1013.51
2021,04,20,08,01,1016.46
2021,04,20,08,02,1016.46
2021,04,20,08,03,1016.46
2021,04,20,08,04,1016.46
2021,04,20,08,05,1016.46
2021,04,20,08,06,1016.46
2021,04,20,08,07,1016.46
2021,04,20,08,08,1016.46
2021,04,20,08,09,1016.46
2021,04,20,08,10,1016.46
2021,04,20,08,11,1016.46
2021,04,20,08,12,1016.46
2021,04,20,08,13,1016.46
2021,04,20,08,14,1013.26
2021,04,20,08,15,1007.39
2021,04,20,08,16,1007.52
2021,04,20,08,17,1007.52
2021,04,20,08,18,1006.62
2021,04,20,08,19,1004.95
2021,04,20,08,20,1005.51
2021,04,20,08,21,1006.54
2021,04,20,08,22,1006.89
2021,04,20,08,23,1007.32
2021,04,20,08,24,1006.88
2021,04,20,08,25,1006.45
2021,04,20,08,26,1005.45
2021,04,20,08,27,1005.81
2021,04,20,08,28,1006.47
2021,04,20,08,29,1006.97
2021,04,20,08,30,1007.89
2021,04,20,08,31,1007.89
2021,04,20,08,32,1007.90
2021,04,20,08,33,1008.00
2021,04,20,08,34,1008.13
2021,04,20,08,35,1008.13
2021,04,20,08,36,1008.13
2021,04,20,08,37,1007.85
2021,04,20,08,38,1007.32
2021,04,20,08,39,1007.32
2021,04,20,08,40,1007.32
2021,04,20,08,41,1007.32
2021,04,20,08,42,1009.94
2021,04,20,08,43,1015.61
2021,04,20,08,44,1015.61
2021,04,20,08,45,1015.61
2021,04,20,08,46,1015.61
2021,04,20,08,47,1015.61
2021,04,20,08,48,1015.61
2021,04,20,08,49,1016.62
2021,04,20,08,50,1018.28
2021,04,20,08,51,1017.94
2021,04,20,08,52,1018.08
2021,04,20,08,53,1018.08
2021,04,20,08,54,1016.72
2021,04,20,08,55,1014.19
2021,04,20,08,56,1014.19
2021,04,20,08,57,1014.19
2021,04,20,08,58,1014.19
2021,04,20,08,59,1014.19
2021,04,20,09,00,1015.73
2021,04,20,09,01,1018.63
2021,04,20,09,02,1018.73
2021,04,20,09,03,1016.95
2021,04,20,09,04,1013.48
2021,04,20,09,05,1013.17
2021,04,20,09,06,1013.17
2021,04,20,09,07,1013.17
2021,04,20,09,08,1013.17
2021,04,20,09,09,1013.17
2021,04,20,09,10,1010.64
2021,04,20,09,11,1005.93
2021,04,20,09,12,1005.93
2021,04,20,09,13,1003.99
2021,04,20,09,14,999.46
2021,04,20,09,15,999.46
2021,04,20,09,16,999.46
2021,04,20,09,17,999.46
2021,04,20,09,18,999.46
2021,04,20,09,19,999.46
2021,04,20,09,20,999.46
2021,04,20,09,21,999.46
2021,04,20,09,22,999.46
2021,04,20,09,23,999.46
2021,04,20,09,24,999.46
2021,04,20,09,25,999.46
2021,04,20,09,26,999.46
2021,04,20,09,27,999.46
2021,04,20,09,28,999.46
2021,04,20,09,29,999.46
2021,04,20,09,30,999.46
2021,04,20,09,31,999.46
2021,04,20,09,32,999.46
2021,04,20,09,33,999.46
2021,04,20,09,34,999.46
2021,04,20,09,35,999.46
2021,04,20,09,36,999.46
2021,04,20,09,37,999.46
2021,04,20,09,38,999.46
2021,04,20,09,39,999.46
2021,04,20,09,40,999.28
2021,04,20,09,41,998.85
2021,04,20,09,42,998.85
2021,04,20,09,43,998.85
2021,04,20,09,44,998.85
2021,04,20,09,45,998.85
2021,04,20,09,46,998.85
2021,04,20,09,47,998.85
2021,04,20,09,48,998.85
2021,04,20,09,49,998.85
2021,04,20,09,50,998.11
2021,04,20,09,51,996.38
2021,04,20,09,52,996.47
2021,04,20,09,53,996.68
2021,04,20,09,54,996.68
2021,04,20,09,55,996.36
2021,04,20,09,56,995.60
2021,04,20,09,57,995.60
2021,04,20,09,58,995.60
2021,04,20,09,59,995.60
2021,04,20,10,00,995.60
2021,04,20,10,01,995.60
2021,04,20,10,02,989.50
2021,04,20,10,03,978.16
2021,04,20,10,04,978.16
2021,04,20,10,05,978.16
2021,04,20,10,06,978.16
2021,04,20,10,07,978.16
2021,04,20,10,08,978.16
2021,04,20,10,09,978.16
2021,04,20,10,10,978.65
2021,04,20,10,11,979.72
2021,04,20,10,12,979.04
2021,04,20,10,13,977.58
2021,04,20,10,14,978.95
2021,04,20,10,15,981.48
2021,04,20,10,16,981.48
2021,04,20,10,17,981.48
2021,04,20,10,18,981.48
2021,04,20,10,19,981.48
2021,04,20,10,20,981.48
2021,04,20,10,21,981.48
2021,04,20,10,22,981.48
2021,04,20,10,23,981.48
2021,04,20,10,24,981.48
2021,04,20,10,25,981.48
2021,04,20,10,26,981.48
2021,04,20,10,27,981.48
2021,04,20,10,28,981.48
2021,04,20,10,29,981.48
2021,04,20,10,30,981.48
2021,04,20,10,31,981.48
2021,04,20,10,32,981.48
2021,04,20,10,33,981.48
2021,04,20,10,34,981.48
2021,04,20,10,35,981.48
2021,04,20,10,36,981.48
2021,04,20,10,37,981.48
2021,04,20,10,38,981.48
2021,04,20,10,39,981.48
2021,04,20,10,40,981.48
2021,04,20,10,41,981.48
2021,04,20,10,42,981.48
2021,04,20,10,43,981.48
2021,04,20,10,44,981.48
2021,04,20,10,45,981.48
2021,04,20,10,46,981.48
2021,04,20,10,47,981.48
2021,04,20,10,48,981.48
2021,04,20,10,49,981.48
2021,04,20,10,50,981.48
2021,04,20,10,51,981.48
2021,04,20,10,52,981.48
2021,04,20,10,53,981.48
2021,04,20,10,54,981.48
2021,04,20,10,55,981.48
2021,04,20,10,56,981.48
2021,04,20,10,57,981.48
2021,04,20,10,58,981.48
2021,04,20,10,59,981.48
2021,04,20,11,00,981.48
2021,04,20,11,01,981.48
2021,04,20,11,02,981.48
2021,04,20,16,04,947.44
2021,04,20,16,05,947.44
2021,04,20,16,06,947.44
2021,04,20,16,07,947.44
2021,04,20,16,08,947.44
2021,04,20,16,09,947.44
2021,04,20,16,10,947.44
2021,04,20,16,11,947.44
2021,04,20,16,12,947.44
2021,04,20,16,13,947.44
2021,04,20,16,14,947.44
2021,04,20,16,15,947.44
2021,04,20,16,16,947.44
2021,04,20,16,17,947.44
2021,04,20,16,18,947.44
2021,04,20,16,19,947.44
2021,04,20,16,20,947.44
2021,04,20,16,21,947.44
2021,04,20,16,22,947.44
2021,04,20,16,23,947.44
2021,04,20,16,24,947.44
2021,04,20,16,25,947.44
2021,04,20,16,26,947.44
2021,04,20,16,27,947.44
2021,04,20,16,28,947.44
2021,04,20,16,29,947.44
2021,04,20,16,30,947.44
2021,04,20,16,31,947.44
2021,04,20,16,32,947.44
2021,04,20,16,33,947.44
2021,04,20,16,34,947.44
2021,04,20,16,35,947.44
2021,04,20,16,36,947.44
2021,04,20,16,37,947.44
2021,04,20,16,38,947.44
2021,04,20,16,39,947.44
2021,04,20,16,40,947.44
2021,04,20,16,41,947.44
2021,04,20,16,42,947.44
2021,04,20,16,43,947.44
2021,04,20,16,44,947.44
2021,04,20,16,45,947.44
2021,04,20,16,46,947.44
2021,04,20,16,47,947.44
2021,04,20,16,48,947.44
2021,04,20,16,49,947.44
2021,04,20,16,50,947.44
2021,04,20,16,51,947.44
2021,04,20,16,52,947.44
2021,04,20,16,53,947.44
2021,04,20,16,54,947.44
2021,04,20,16,55,947.44
2021,04,20,16,56,947.44
2021,04,20,16,57,947.44
2021,04,20,16,58,947.44
2021,04,20,16,59,947.44
2021,04,20,17,00,947.44
2021,04,20,17,01,947.44
2021,04,20,17,02,947.44
2021,04,20,17,03,947.44
2021,04,20,17,04,947.44
2021,04,20,17,05,947.44
2021,04,20,17,06,947.44
2021,04,20,17,07,947.44
2021,04,20,17,08,947.44
2021,04,20,17,09,947.44
2021,04,20,17,10,947.44
2021,04,20,17,11,947.44
2021,04,20,17,12,947.44
2021,04,20,17,13,947.44
2021,04,20,17,14,947.44
2021,04,20,17,15,947.44
2021,04,20,17,16,947.44
2021,04,20,17,17,947.44
2021,04,20,17,18,947.44
2021,04,20,17,19,947.44
2021,04,20,17,20,947.44
2021,04,20,17,21,947.44
2021,04,20,17,22,947.44
2021,04,20,17,23,947.44
2021,04,20,17,24,947.44
2021,04,20,17,25,947.44
2021,04,20,17,26,947.44
2021,04,20,17,27,947.44
2021,04,20,17,28,947.44
2021,04,20,17,29,947.44
2021,04,20,17,30,947.44
2021,04,20,17,31,947.44
2021,04,20,17,32,947.44
2021,04,20,17,33,947.44
2021,04,20,17,34,947.44
2021,04,20,17,35,947.44
2021,04,20,19,58,924.79
2021,04,20,19,59,924.79
2021,04,20,20,00,924.79
2021,04,20,20,01,924.79
2021,04,20,20,02,924.79
2021,04,20,20,03,924.79
2021,04,20,20,04,924.79
2021,04,20,20,05,924.79
2021,04,20,20,06,924.79
2021,04,20,20,07,924.79
2021,04,20,20,08,927.30
2021,04,20,20,09,937.32
2021,04,20,20,10,937.32
2021,04,20,20,11,937.32
2021,04,20,20,12,937.32
2021,04,20,20,13,937.32
2021,04,20,20,14,937.32
2021,04,20,20,15,937.32
2021,04,20,20,16,937.32
2021,04,20,20,17,937.32
2021,04,20,20,18,937.32
2021,04,20,20,19,937.32
2021,04,20,20,20,937.32
2021,04,20,20,21,937.32
2021,04,20,20,22,937.32
2021,04,20,20,23,937.32
2021,04,20,20,24,937.32
2021,04,20,20,25,937.32
2021,04,20,20,26,937.32
2021,04,20,20,27,937.32
2021,04,20,20,28,937.32
2021,04,20,20,29,937.32
2021,04,20,20,30,937.32
2021,04,20,20,31,937.32
2021,04,20,20,32,937.32
2021,04,20,20,33,937.32
2021,04,20,20,34,937.32
2021,04,20,20,35,937.32
2021,04,20,20,36,937.32
2021,04,20,20,37,937.32
2021,04,20,20,38,937.32
2021,04,20,20,39,937.32
2021,04,20,20,40,937.32
2021,04,20,20,41,937.32
2021,04,20,20,42,937.32
2021,04,20,20,43,937.32
2021,04,20,20,44,937.32
2021,04,20,20,45,937.32
2021,04,20,20,46,937.32
2021,04,20,20,47,937.32
2021,04,20,20,48,937.32
2021,04,20,20,49,937.32
2021,04,20,20,50,937.32
2021,04,20,20,51,937.32
2021,04,20,20,52,937.32
2021,04,20,20,53,937.32
2021,04,20,20,54,946.38
2021,04,20,20,55,982.63
2021,04,20,20,56,982.63
2021,04,20,20,57,982.63
2021,04,20,20,58,982.63
2021,04,20,20,59,982.63
2021,04,20,21,00,982.63
2021,04,20,21,01,982.63
2021,04,20,21,02,982.63
2021,04,20,21,03,984.94
2021,04,20,21,04,994.18
2021,04,20,21,05,994.18
2021,04,20,21,06,994.18
2021,04,20,21,07,994.18
2021,04,20,21,08,994.18
2021,04,20,21,09,994.18
2021,04,20,21,10,994.18
2021,04,20,21,11,991.73
2021,04,20,21,12,981.95
2021,04,20,21,13,981.95
2021,04,20,21,14,981.95
2021,04,20,21,15,981.95
2021,04,20,21,16,981.95
2021,04,20,21,17,981.95
2021,04,20,21,18,981.95
2021,04,20,21,19,981.95
2021,04,20,21,20,981.95
2021,04,20,21,21,981.95
2021,04,20,21,22,981.95
2021,04,20,21,23,981.95
2021,04,20,21,24,981.95
2021,04,20,21,25,981.95
2021,04,20,21,26,981.95
2021,04,20,21,27,981.95
2021,04,20,21,28,981.95
2021,04,20,21,29,983.41
2021,04,20,21,30,989.23
2021,04,20,21,31,989.23
2021,04,20,21,32,989.23
2021,04,20,21,33,989.23
2021,04,20,21,34,989.23
2021,04,20,21,35,989.23
2021,04,20,21,36,989.23
2021,04,20,21,37,989.23
2021,04,20,21,38,989.23
2021,04,20,21,39,989.23
2021,04,20,21,40,990.16
2021,04,20,21,41,994.11
2021,04,20,21,42,994.11
2021,04,20,21,43,993.87
2021,04,20,21,44,992.84
2021,04,20,21,45,992.52
2021,04,20,21,46,992.52
2021,04,20,21,47,992.52
2021,04,20,21,48,992.52
2021,04,20,21,49,993.92
2021,04,20,21,50,999.53
2021,04,20,21,51,999.53
2021,04,20,21,52,999.53
2021,04,20,21,53,999.53
2021,04,20,21,54,999.53
2021,04,20,21,55,999.53
2021,04,20,21,56,999.53
2021,04,20,21,57,999.53
2021,04,20,21,58,999.53
2021,04,20,21,59,999.53
2021,04,20,22,00,999.53
2021,04,20,22,01,999.53
2021,04,20,22,02,999.53
2021,04,20,22,03,999.53
2021,04,20,22,04,999.53
2021,04,20,22,05,999.53
2021,04,20,22,06,999.53
2021,04,20,22,07,999.53
2021,04,20,22,08,999.53
2021,04,20,22,09,997.85
2021,04,20,22,10,988.89
2021,04,20,22,11,988.89
2021,04,20,22,12,988.89
2021,04,20,22,13,988.89
2021,04,20,22,14,988.60
2021,04,20,22,15,987.51
2021,04,20,22,16,987.51
2021,04,20,22,17,987.51
2021,04,20,22,18,987.51
2021,04,20,22,19,987.51
2021,04,20,22,20,987.51
2021,04,20,22,21,987.51
2021,04,20,22,22,987.51
2021,04,20,22,23,987.51
2021,04,20,22,24,987.51
2021,04,20,22,25,987.51
2021,04,20,22,26,987.51
2021,04,20,22,27,989.53
2021,04,20,22,28,997.50
2021,04,20,22,29,996.99
2021,04,20,22,30,996.99
2021,04,20,22,31,996.99
2021,04,20,22,32,996.99
2021,04,20,22,33,996.99
2021,04,20,22,34,996.99
2021,04,20,22,35,995.00
2021,04,20,22,36,987.03
2021,04,20,22,37,987.03
2021,04,20,22,38,987.03
2021,04,20,22,39,987.03
2021,04,20,22,40,987.03
2021,04,20,22,41,987.03
2021,04,20,22,42,987.03
2021,04,20,22,43,987.03
2021,04,20,22,44,987.03
2021,04,20,22,45,987.03
2021,04,20,22,46,987.03
2021,04,20,22,47,987.33
2021,04,20,22,48,988.55
2021,04,20,22,49,988.55
2021,04,20,22,50,988.55
2021,04,20,22,51,988.55
2021,04,20,22,52,988.55
2021,04,20,22,53,988.55
2021,04,20,22,54,988.55
2021,04,20,22,55,988.55
2021,04,20,22,56,990.89
2021,04,20,22,57,1000.24
2021,04,20,22,58,1000.24
2021,04,20,22,59,1000.24
2021,04,20,23,00,1000.23
2021,04,20,23,01,1000.17
2021,04,20,23,02,1000.17
2021,04,20,23,03,1000.17
2021,04,20,23,04,999.89
2021,04,20,23,05,998.75
2021,04,20,23,06,998.75
2021,04,20,23,07,999.47
2021,04,20,23,08,1002.34
2021,04,20,23,09,1002.34
2021,04,20,23,10,1002.34
2021,04,20,23,11,1002.34
2021,04,20,23,12,1002.34
2021,04,20,23,13,1002.34
2021,04,20,23,14,1002.34
2021,04,20,23,15,1001.14
2021,04,20,23,16,994.35
2021,04,20,23,17,994.35
2021,04,20,23,18,994.35
2021,04,20,23,19,994.35
2021,04,20,23,20,994.35
2021,04,20,23,21,994.35
2021,04,20,23,22,994.35
2021,04,20,23,23,994.35
2021,04,20,23,24,994.35
2021,04,20,23,25,994.35
2021,04,20,23,26,994.35
2021,04,20,23,27,994.35
2021,04,20,23,28,995.08
2021,04,20,23,29,998.95
2021,04,20,23,30,998.95
2021,04,20,23,31,998.95
2021,04,20,23,32,998.95
2021,04,20,23,33,998.95
2021,04,20,23,34,998.95
2021,04,20,23,35,998.95
2021,04,20,23,36,998.95
2021,04,20,23,37,998.95
2021,04,20,23,38,998.51
2021,04,20,23,39,996.70
2021,04,20,23,40,996.45